Find Starlink 32658

NORAD ID: 62999 Int'l Des: 2025-031 Owner: SPXS Country: US Constellation: starlink operational
LEOCIRCULAR

Live Position

Loading 3D Globe...

About Starlink 32658

Description loading...

Upcoming Passes

Passes for default location (London). Set your location on the main map for personalized predictions.

Altitude History

Loading altitude history...

Two-Line Element Set

1 62999U 25031U 26125.42401785 .00019321 00000-0 70936-3 0 9997
2 62999 42.9952 182.7807 0001254 148.4198 211.6729 15.27600418 69779
Epoch: May 5, 2026 • Age: 16 hours

Current Status

Altitude 490.0 km
Velocity 7.62 km/s
Sub-Earth Point -25.18°S, 100.43°W
Launch Date Feb 11, 2025
Age 1.2 years
Type internet

Technical Details

Classification Payload
Mass 730.00 kg
Dry Mass 700.00 kg
Total Mass 730.00 kg
Length 0.30 m
Diameter 4.10 m
Span 29.00 m
Shape Box + pan
Manufacturer SPXS
Bus Type Starlink V2M
Phase Status In Orbit
Owner/State SPXS/US

Most Searched